{"data":{"norad_id":66305,"epoch":"2026-05-24T23:02:16.096128Z","epoch_age_seconds":78814,"freshness":"FRESH","line1":"1 66305U 25248N   26144.95990852  .00014400  00000+0  54217-3 0  9995","line2":"2 66305  45.4202 239.2114 0013116 282.4033  77.5388 15.27016767 28926","mean_motion":15.27016767,"eccentricity":0.0013116,"inclination_deg":45.4202,"raan_deg":239.2114,"arg_perigee_deg":282.4033,"mean_anomaly_deg":77.5388,"bstar":0.00054217,"rev_number":2892,"period_min":94.301518563483,"perigee_km":475.73479222462,"apogee_km":493.73748103663,"semimajor_km":6862.8731366306,"source":"CELESTRAK","updated_at":"2026-05-25T13:38:06.131621Z"}}